Retour au catalogue

STARLINK-4417

ActifCommunicationsSSO
NORAD 53200·PAYLOAD·🇺🇸 United States

Lancé Jul 22, 2022 depuis Vandenberg Space Force Base

Loading…

Prochains Passages (prochaines 24 heures)

TLE

FraisSource: CelesTrak SupGP

Époque: Sep 15, 2026, 01:24 UTC

1 53200C 22084M   26258.05881944  .00064599  00000+0  20049-2 0  2585
2 53200  97.2838 313.9039 0001680  79.7648  32.5402 15.33412144    18

Suivez STARLINK-4417 en temps réel avec AllMySat

Download on the App Store